#timestamp,LO_Frequency,Hit,StdDev 
1506520815.4,286046998.2,N
1506520835.2,286046998.3,N
1506520855.1,286047000.8,N
1506520856.0,286047000.8,N
1506520875.8,286046998.6,N
1506520895.7,286047000.4,N
1506520915.5,286047001.0,N
1506520935.3,286046999.9,N
1506520955.2,286046999.9,N
1506520975.0,286047000.4,N
1506520975.9,286047000.4,N
1506520995.7,286047000.9,N
1506521015.6,286046998.9,N
1506521035.4,286047000.8,N
1506521055.3,286046998.2,N
1506521075.1,286046999.4,N
1506521095.8,286046996.7,N
1506521115.7,286046998.8,N
1506521135.5,286046998.4,N
1506521155.4,286046998.8,N
1506521175.2,286046999.1,N
1506521195.0,286046998.8,N
1506521195.9,286046998.8,N
1506521215.8,286046998.6,N
1506521235.6,286046998.3,N
1506521255.4,286046996.9,N
1506521275.3,286046999.5,N
1506521295.1,286046997.0,N
1506521315.9,286046997.0,N
1506521335.7,286046999.1,N
1506521355.5,286046999.1,N
1506521375.4,286046997.1,N
1506521395.2,286046996.8,N
1506521415.0,286046996.9,N
1506521415.9,286046996.9,N
1506521435.8,286046997.5,N
1506521455.6,286046997.4,N
1506521475.5,286046999.1,N
1506521495.3,286046997.0,N
1506521515.1,286046999.1,N
1506521535.9,286046998.9,N
1506521555.7,286046999.3,N
1506521575.6,286046997.7,N
1506521595.4,286046997.2,N
1506521615.2,286046996.8,Y
1506521635.1,286047000.7,P
1506521636.0,286047000.7,N
1506521655.8,286047000.7,N
1506521675.7,286047000.7,N
1506521695.5,286047001.2,N
1506521715.3,286047002.8,N
1506521735.2,286047002.5,N
1506521755.0,286047002.0,N
1506521755.9,286047002.0,N
1506521775.7,286047002.5,N
1506521795.6,286047002.5,N
1506521815.4,286047001.6,N
1506521835.3,286047002.7,N
1506521855.1,286047000.9,N
1506521856.0,286047000.9,N
1506521875.8,286046998.2,N
1506521895.7,286047002.8,N
1506521915.5,286047002.6,N
1506521935.4,286047001.6,N
1506521955.2,286047002.0,N
1506521975.0,286047002.2,N
1506521975.9,286047002.2,N
1506521995.8,286047002.5,N
1506522015.6,286047002.5,N
1506522035.4,286047002.7,N
1506522055.3,286047001.6,N
1506522075.1,286047002.2,N
1506522095.9,286047002.1,N
1506522115.7,286047003.6,Y
1506522135.5,286047002.6,P
1506522155.4,286047002.5,P
1506522175.2,286047002.8,P
1506522195.0,286047001.3,N
1506522196.0,286047001.3,N
1506522215.8,286047002.4,Y
1506522235.6,286047000.7,P
1506522255.5,286047000.2,N
1506522275.3,286047000.6,N
1506522295.1,286046998.3,N
1506522315.9,286047000.9,N
1506522335.7,286047000.7,N
1506522355.6,286046999.9,N
1506522375.4,286046999.9,N
1506522395.2,286046999.7,N
1506522415.1,286047000.4,N
1506522416.0,286047000.4,N
1506522435.8,286047000.3,N
1506522455.7,286047000.1,N
1506522475.5,286047000.5,N
1506522495.3,286046999.8,N
1506522515.2,286047000.6,N
1506522535.0,286047000.5,N
1506522535.9,286047000.5,N
1506522555.7,286046999.7,N
1506522575.6,286047000.3,N
1506522595.4,286047001.2,N
1506522615.3,286046998.4,N
1506522635.1,286046998.6,N
1506522655.8,286046998.1,N
1506522675.7,286046998.4,N
1506522695.5,286046999.0,N
1506522715.4,286046998.3,N
1506522735.2,286046998.5,N
1506522755.0,286047000.6,N
1506522755.9,286047000.6,N
1506522775.8,286046999.9,N
1506522795.6,286046998.6,N
1506522815.4,286046998.6,N
1506522835.3,286046998.4,N
1506522855.1,286046998.7,N
1506522875.9,286047001.2,N
1506522895.7,286046998.1,N
1506522915.5,286047000.9,N
1506522935.4,286047000.6,N
1506522955.2,286047000.3,N
1506522975.0,286046999.7,N
1506522976.0,286046999.7,N
1506522995.8,286047002.4,N
1506523015.6,286047000.5,N
1506523035.5,286047000.5,N
1506523055.3,286047000.0,N
1506523075.2,286047000.7,N
1506523095.9,286047000.4,N
1506523115.7,286047002.7,N
1506523135.6,286047000.9,N
1506523155.4,286047000.9,N
1506523175.3,286046999.8,N
1506523195.1,286047000.3,N
1506523196.0,286047000.3,N
1506523215.8,286047000.6,N
1506523235.7,286047000.5,N
1506523255.5,286047002.4,N
1506523275.4,286046999.7,N
1506523295.2,286046999.8,N
1506523315.0,286047001.9,N
1506523315.9,286047001.9,N
1506523335.8,286047002.5,N
1506523355.6,286046999.8,N
1506523375.4,286046999.9,N
1506523395.3,286047000.5,N
1506523415.1,286047000.7,N
1506523435.9,286047000.2,N
1506523455.7,286046999.7,N
1506523475.6,286047000.2,N
1506523495.4,286047000.3,N
1506523515.2,286046999.7,N
1506523535.1,286047000.6,N
1506523536.0,286047000.6,N
1506523555.8,286047000.1,N
1506523575.6,286047000.3,N
1506523595.5,286047000.5,N
1506523645.4,286046998.5,E
1506523655.3,286047000.6,N
1506523675.1,286047004.0,P
1506523695.9,286047002.7,N
1506523715.7,286047002.5,N
1506523735.5,286047002.8,N
1506523755.4,286047004.2,Y
1506523775.2,286046999.7,P
1506523795.0,286047002.3,N
1506523795.9,286047002.3,N
1506523815.8,286047000.0,N
1506523835.6,286047002.4,N
1506523855.5,286047000.0,N
1506523875.3,286046999.9,N
1506523895.1,286047000.0,N
1506523915.9,286046999.7,N
1506523935.7,286047000.9,N
1506523955.5,286046999.9,N
1506523975.4,286047000.5,N
1506523995.2,286047000.4,N
1506524015.1,286046999.9,N
1506524016.0,286046999.9,N
1506524035.8,286047001.8,N
1506524055.6,286047001.8,N
1506524075.5,286047002.8,N
1506524095.3,286047002.4,N
1506524115.2,286047000.1,N
1506524135.9,286047002.3,N
1506524155.7,286047002.3,N
1506524175.6,286047002.3,N
1506524195.4,286046999.8,N
1506524215.2,286047000.7,N
1506524235.1,286047001.2,N
1506524236.0,286047001.2,N
1506524255.8,286047001.0,N
1506524275.7,286047000.4,N
1506524295.5,286047000.7,N
1506524315.3,286047000.2,N
1506524335.2,286047000.0,N
1506524355.0,286047000.4,N
1506524355.9,286047000.4,N
1506524375.8,286046999.7,N
1506524395.6,286047002.8,N
